Fairborn, OH

6:27 AM EDT on September 26, 2016 (GMT -0400)
Wright-Patterson Air Force Base

Weather History for KFFO - November, 2012

Change the Weather History Date:

Wednesday, November 14, 2012

  Actual Average Record
Temperature  
Mean Temperature 32 °F -  
Max Temperature 41 °F 50 °F 71 °F (2011)
Min Temperature 23 °F 33 °F 19 °F (1996)
Degree Days  
Heating Degree Days 33    
Moisture  
Dew Point 25 °F    
Average Humidity 74    
Maximum Humidity 91    
Minimum Humidity 56    
Precipitation  
Precipitation 0.00 in - - ()
Sea Level Pressure  
Sea Level Pressure 30.50 in    
Wind  
Wind Speed 4 mph (NE)    
Max Wind Speed 12 mph    
Max Gust Speed -    
Visibility 10 miles    
Events      
Averages and records for this station are not official NWS values.
T = Trace of Precipitation, MM = Missing Value Source: NWS Daily Summary

Daily Weather History Graph

Daily Weather History Graph

Search for Another Location

Airport or City:

Trip Planner

Search our weather history database for the weather conditions in past years. The results will help you decide how hot, cold, wet, or windy it might be!

Date:

Astronomy

Nov. 14, 2012 Rise Set
Actual Time 7:20 AM EST 5:20 PM EST
Civil Twilight 6:51 AM EST 5:49 PM EST
Nautical Twilight 6:18 AM EST 6:22 PM EST
Astronomical Twilight 5:46 AM EST 6:54 PM EST
Moon 8:08 AM EST (11/14) 6:08 PM EST (11/14)
Length of Visible Light 10h 58m
Length of Day
10h 00m
New Moon, 1% of the Moon is Illuminated
Nov 14
New Moon
Nov 20
First Quarter
Nov 28
Full
Dec 6
Last Quarter
Dec 13
New

Hourly Weather History & Observations

Time (EST) Temp. Windchill Dew Point Humidity Pressure Visibility Wind Dir Wind Speed Gust Speed Precip Events Conditions
12:55 AM 26.4 °F 20.9 °F 24.1 °F 91% 30.54 in 10.0 mi NNE 4.6 mph - N/A   Clear
1:55 AM 27.9 °F - 23.4 °F 83% 30.53 in 10.0 mi Calm Calm - N/A   Clear
2:55 AM 26.6 °F 22.6 °F 22.6 °F 85% 30.54 in 10.0 mi NNE 3.5 mph - N/A   Clear
3:55 AM 24.1 °F - 20.8 °F 87% 30.55 in 10.0 mi Calm Calm - N/A   Clear
4:55 AM 24.4 °F - 21.4 °F 88% 30.55 in 10.0 mi Calm Calm - N/A   Clear
5:55 AM 23.4 °F 18.9 °F 20.5 °F 89% 30.56 in 10.0 mi NNE 3.5 mph - N/A   Clear
6:55 AM 26.2 °F 22.1 °F 21.6 °F 82% 30.56 in 10.0 mi North 3.5 mph - N/A   Partly Cloudy
7:55 AM 27.0 °F - 22.8 °F 84% 30.58 in 10.0 mi Calm Calm - N/A   Scattered Clouds
8:55 AM 28.4 °F 24.6 °F 23.5 °F 82% 30.59 in 10.0 mi NE 3.5 mph - N/A   Scattered Clouds
9:55 AM 33.1 °F 26.9 °F 25.7 °F 74% 30.57 in 10.0 mi NE 6.9 mph - N/A   Mostly Cloudy
10:55 AM 37.4 °F 29.8 °F 24.6 °F 60% 30.56 in 10.0 mi East 11.5 mph - N/A   Mostly Cloudy
11:55 AM 39.6 °F 32.5 °F 25.2 °F 56% 30.54 in 10.0 mi East 11.5 mph - N/A   Mostly Cloudy
12:55 PM 39.7 °F 34.9 °F 25.9 °F 58% 30.51 in 10.0 mi NE 6.9 mph - N/A   Overcast
1:55 PM 41.5 °F 37.1 °F 26.8 °F 56% 30.49 in 10.0 mi Variable 6.9 mph - N/A   Overcast
2:55 PM 41.4 °F 36.2 °F 26.8 °F 56% 30.48 in 10.0 mi East 8.1 mph - N/A   Overcast
3:55 PM 40.5 °F 35.1 °F 26.1 °F 57% 30.46 in 10.0 mi East 8.1 mph - N/A   Overcast
4:55 PM 39.9 °F 35.1 °F 26.2 °F 58% 30.45 in 10.0 mi ENE 6.9 mph - N/A   Mostly Cloudy
5:55 PM 36.1 °F 29.9 °F 25.9 °F 66% 30.45 in 10.0 mi NE 8.1 mph - N/A   Mostly Cloudy
6:55 PM 34.3 °F - 25.7 °F 71% 30.45 in 10.0 mi Calm Calm - N/A   Overcast
7:55 PM 33.6 °F 27.5 °F 27.0 °F 77% 30.44 in 10.0 mi ENE 6.9 mph - N/A   Overcast
8:55 PM 32.9 °F 25.9 °F 27.3 °F 80% 30.43 in 10.0 mi NE 8.1 mph - N/A   Mostly Cloudy
9:55 PM 30.7 °F 26.0 °F 25.2 °F 80% 30.43 in 10.0 mi ENE 4.6 mph - N/A   Clear
10:55 PM 30.4 °F - 25.3 °F 82% 30.43 in 10.0 mi Calm Calm - N/A   Clear
11:55 PM 30.6 °F - 25.2 °F 80% 30.42 in 10.0 mi Calm Calm - N/A   Clear